Portada
METAR-TAF:

METAR-TAF

Aeroports :

Springdale, Arkansas, Estats Units d'Amèrica

latitud: 36-11N, longitud: 094-07W, altitud: 412 m

Observació

L'informe es va fer fa 4 hores i 32 minuts, a les 01:48 UTC
Vent 4 kt del Sud
Temperatura 28°C
Humitat 70%
Pressió 1020 hPa
Visibilitat: 16.1 km
Cel clar

METAR: KASG 220148Z 17004KT 10SM CLR 28/22 A3012

Hora: 01:20 (06:20 UTC)


TAF: manca

Observacions i pronòstics meteorològics de més de 4000 aeroports (METAR i TAF).

Les estacions disponibles són els punts grocs i vermells al mapa.

Posi el ratolí al punt desitjat per veure el nom de l'estació.

Feu clic per veure les observacions i els pronòstics meteorològics.

Per canviar el mapa: feu clic els botons verds amb una creu de color negre per apropar; al botó verd amb un guió per allunyar la imatge; o en les fletxes verdes per a mapes adjacents.


METAR-TAF: